THA1123 VTCC-VTBS

Flight info

Callsign THA1123
Flight time 0h 59m
Altitude 37000
Route PANTA2S PANTA Y7 BLAFF NORTA1C
Aircraft B772/H-SDE2E3FGHIJ5LORVWXY/LB1D1

Departure

Time 2026-05-04 10:27
Airport Chiang Mai International Airport (VTCC)

Arrival

Time 2026-05-04 11:26
Airport Suvarnabhumi Airport (VTBS)
Time Latitude Longitude Altitude Speed Heading
2026-05-04 10:10 18.76908 98.96726 1036 ft 0 kts 90°
2026-05-04 10:17 18.76908 98.96718 1036 ft 2 kts 89°
2026-05-04 10:19 18.76851 98.96647 1036 ft 1 kts 360°
2026-05-04 10:19 18.76848 98.96647 1036 ft 0 kts 360°
2026-05-04 10:20 18.76867 98.96647 1036 ft 6 kts
2026-05-04 10:20 18.76912 98.96647 1036 ft 6 kts
2026-05-04 10:20 18.76956 98.96647 1036 ft 6 kts 357°
2026-05-04 10:20 18.77000 98.96640 1036 ft 6 kts 346°
2026-05-04 10:21 18.77042 98.96622 1036 ft 7 kts 333°
2026-05-04 10:21 18.77092 98.96585 1036 ft 11 kts 318°
2026-05-04 10:21 18.77141 98.96529 1036 ft 11 kts 326°
2026-05-04 10:21 18.77213 98.96518 1036 ft 11 kts
2026-05-04 10:22 18.77360 98.96519 1035 ft 11 kts
2026-05-04 10:22 18.77434 98.96519 1034 ft 11 kts
2026-05-04 10:22 18.77507 98.96520 1034 ft 11 kts
2026-05-04 10:23 18.77581 98.96520 1034 ft 11 kts
2026-05-04 10:23 18.77654 98.96519 1034 ft 11 kts 359°
2026-05-04 10:25 18.78091 98.96463 1033 ft 8 kts 282°
2026-05-04 10:25 18.78088 98.96403 1036 ft 8 kts 269°
2026-05-04 10:25 18.78088 98.96343 1036 ft 8 kts 269°
2026-05-04 10:25 18.78063 98.96297 1034 ft 8 kts 197°
2026-05-04 10:26 18.78015 98.96292 1034 ft 0 kts 181°
2026-05-04 10:26 18.77988 98.96291 1034 ft 19 kts 181°
2026-05-04 10:26 18.77556 98.96290 1034 ft 107 kts 180°
2026-05-04 10:26 18.76532 98.96286 1051 ft 184 kts 180°
2026-05-04 10:27 18.75183 98.96274 1775 ft 201 kts 180°
2026-05-04 10:27 18.73745 98.96270 2719 ft 210 kts 179°
2026-05-04 10:27 18.72233 98.96275 3304 ft 228 kts 180°
2026-05-04 10:27 18.70538 98.96274 3525 ft 258 kts 180°
2026-05-04 10:28 18.68707 98.96271 4153 ft 268 kts 180°
2026-05-04 10:28 18.66829 98.96266 4963 ft 272 kts 180°
2026-05-04 10:28 18.64928 98.96260 5808 ft 274 kts 180°
2026-05-04 10:28 18.63012 98.96255 6633 ft 277 kts 180°
2026-05-04 10:29 18.61102 98.96250 7381 ft 280 kts 180°
2026-05-04 10:29 18.59120 98.96247 8157 ft 283 kts 181°
2026-05-04 10:29 18.57138 98.96237 8887 ft 287 kts 182°
2026-05-04 10:29 18.55124 98.96229 9612 ft 291 kts 182°
2026-05-04 10:30 18.53087 98.96223 10278 ft 295 kts 181°
2026-05-04 10:30 18.51032 98.96582 10487 ft 321 kts 160°
2026-05-04 10:30 18.49061 98.97804 11004 ft 336 kts 142°
2026-05-04 10:30 18.47439 98.99637 11670 ft 348 kts 131°
2026-05-04 10:31 18.45927 99.01659 12556 ft 354 kts 129°
2026-05-04 10:31 18.44415 99.03731 13530 ft 359 kts 129°
2026-05-04 10:32 18.34765 99.16678 16763 ft 385 kts 130°
2026-05-04 10:33 18.33103 99.18879 17874 ft 384 kts 130°
2026-05-04 10:33 18.31430 99.21091 18717 ft 389 kts 130°
2026-05-04 10:33 18.29733 99.23334 19480 ft 394 kts 130°
2026-05-04 10:33 18.28014 99.25607 20269 ft 399 kts 130°
2026-05-04 10:34 18.26274 99.27905 21057 ft 404 kts 130°
2026-05-04 10:34 18.24510 99.30222 21847 ft 405 kts 133°
2026-05-04 10:34 18.22407 99.32195 22435 ft 408 kts 151°
2026-05-04 10:34 18.19813 99.33349 23124 ft 405 kts 165°
2026-05-04 10:35 18.17100 99.34222 23746 ft 410 kts 166°
2026-05-04 10:35 18.14354 99.35098 24388 ft 414 kts 166°
2026-05-04 10:35 18.11587 99.35989 25068 ft 417 kts 165°
2026-05-04 10:35 18.08804 99.36897 25718 ft 421 kts 165°
2026-05-04 10:36 18.05992 99.37824 26340 ft 426 kts 165°
2026-05-04 10:36 18.03828 99.38543 26810 ft 430 kts 165°
2026-05-04 10:36 18.00964 99.39498 27436 ft 434 kts 165°
2026-05-04 10:36 17.98072 99.40464 28060 ft 438 kts 165°
2026-05-04 10:37 17.95153 99.41440 28675 ft 442 kts 164°
2026-05-04 10:37 17.92244 99.42412 29259 ft 447 kts 164°
2026-05-04 10:37 17.89268 99.43406 29812 ft 451 kts 164°
2026-05-04 10:37 17.86266 99.44409 30278 ft 455 kts 164°
2026-05-04 10:39 17.67799 99.50564 32822 ft 474 kts 164°
2026-05-04 10:39 17.64645 99.51612 33211 ft 477 kts 164°
2026-05-04 10:39 17.61480 99.52663 33642 ft 479 kts 164°
2026-05-04 10:40 17.58299 99.53719 34043 ft 480 kts 164°
2026-05-04 10:40 17.55114 99.54777 34446 ft 480 kts 164°
2026-05-04 10:40 17.51933 99.55833 34930 ft 479 kts 164°
2026-05-04 10:40 17.48769 99.56884 35507 ft 474 kts 164°
2026-05-04 10:41 17.45638 99.57924 36116 ft 470 kts 164°
2026-05-04 10:41 17.42527 99.58956 36639 ft 468 kts 164°
2026-05-04 10:41 17.39406 99.59991 36798 ft 474 kts 165°
2026-05-04 10:42 17.33111 99.62075 36768 ft 471 kts 165°
2026-05-04 10:42 17.26901 99.64133 36764 ft 467 kts 165°
2026-05-04 10:43 17.20698 99.66185 36761 ft 468 kts 165°
2026-05-04 10:45 16.95904 99.74376 36784 ft 469 kts 164°
2026-05-04 10:45 16.89685 99.76427 36792 ft 468 kts 164°
2026-05-04 10:46 16.84305 99.78201 36796 ft 468 kts 164°
2026-05-04 10:46 16.78094 99.80250 36786 ft 468 kts 164°
2026-05-04 10:47 16.71884 99.82304 36797 ft 468 kts 164°
2026-05-04 10:47 16.65672 99.84357 36792 ft 469 kts 164°
2026-05-04 10:49 16.40766 99.92572 36788 ft 470 kts 164°
2026-05-04 10:50 16.34530 99.94626 36803 ft 470 kts 164°
2026-05-04 10:52 16.09673 100.02834 36808 ft 470 kts 165°
2026-05-04 10:52 16.03439 100.04891 36811 ft 470 kts 165°
2026-05-04 10:54 15.81762 100.12030 36490 ft 461 kts 165°
2026-05-04 10:54 15.78679 100.13045 36096 ft 457 kts 165°
2026-05-04 10:56 15.58012 100.19834 33031 ft 438 kts 165°
2026-05-04 10:56 15.56055 100.20476 32722 ft 436 kts 165°
2026-05-04 10:56 15.53173 100.21422 32289 ft 432 kts 165°
2026-05-04 10:57 15.50317 100.22359 31857 ft 429 kts 165°
2026-05-04 10:57 15.47514 100.23278 31430 ft 426 kts 165°
2026-05-04 10:57 15.44657 100.24215 31005 ft 424 kts 165°
2026-05-04 10:57 15.40948 100.25429 30439 ft 421 kts 165°
2026-05-04 10:58 15.39102 100.26034 30159 ft 419 kts 165°
2026-05-04 10:58 15.36330 100.26942 29709 ft 417 kts 165°
2026-05-04 10:58 15.33573 100.27845 29226 ft 415 kts 165°
2026-05-04 10:58 15.30828 100.28743 28752 ft 412 kts 165°
2026-05-04 10:59 15.28102 100.29641 28297 ft 410 kts 163°
2026-05-04 10:59 15.25503 100.30842 27841 ft 410 kts 153°
2026-05-04 10:59 15.23049 100.32323 27412 ft 408 kts 151°
2026-05-04 10:59 15.20640 100.33868 26977 ft 406 kts 150°
2026-05-04 11:00 15.18244 100.35415 26540 ft 405 kts 150°
2026-05-04 11:01 15.01500 100.45796 23498 ft 399 kts 151°
2026-05-04 11:02 14.99124 100.47249 23017 ft 398 kts 151°
2026-05-04 11:02 14.96744 100.48705 22549 ft 396 kts 151°
2026-05-04 11:05 14.66430 100.65694 17144 ft 339 kts 166°
2026-05-04 11:06 14.64163 100.66317 16857 ft 336 kts 165°
2026-05-04 11:06 14.61924 100.66973 16581 ft 333 kts 164°
2026-05-04 11:06 14.59717 100.67644 16308 ft 329 kts 164°
2026-05-04 11:06 14.57539 100.68314 16035 ft 326 kts 164°
2026-05-04 11:08 14.42526 100.71800 14193 ft 317 kts 193°
2026-05-04 11:10 14.27611 100.67763 12285 ft 309 kts 194°
2026-05-04 11:12 14.13446 100.64034 10673 ft 300 kts 194°
2026-05-04 11:12 14.11421 100.63501 10417 ft 300 kts 194°
2026-05-04 11:12 14.09405 100.62971 10162 ft 298 kts 194°
2026-05-04 11:12 14.07417 100.62448 9913 ft 293 kts 194°
2026-05-04 11:13 14.05462 100.61934 9622 ft 287 kts 193°
2026-05-04 11:13 14.03543 100.61431 9355 ft 280 kts 192°
2026-05-04 11:13 14.01654 100.61345 9097 ft 270 kts 167°
2026-05-04 11:13 13.99994 100.62125 8870 ft 263 kts 141°
2026-05-04 11:14 13.98764 100.63471 8634 ft 258 kts 124°
2026-05-04 11:14 13.98057 100.65139 8411 ft 254 kts 105°
2026-05-04 11:14 13.97616 100.66885 8185 ft 251 kts 105°
2026-05-04 11:16 14.04704 100.74165 6621 ft 252 kts 19°
2026-05-04 11:16 14.06155 100.75067 6381 ft 242 kts 51°
2026-05-04 11:16 14.06888 100.76588 6205 ft 238 kts 81°
2026-05-04 11:17 14.06843 100.78280 6088 ft 236 kts 104°
2026-05-04 11:17 14.06217 100.79842 5794 ft 244 kts 128°
2026-05-04 11:19 13.95576 100.80986 4360 ft 236 kts 192°
2026-05-04 11:19 13.93972 100.80560 4363 ft 239 kts 192°
2026-05-04 11:19 13.92371 100.80135 4163 ft 237 kts 192°
2026-05-04 11:19 13.90775 100.79712 3901 ft 235 kts 192°
2026-05-04 11:20 13.89240 100.79305 3634 ft 219 kts 192°
2026-05-04 11:20 13.87820 100.78928 3335 ft 201 kts 192°
2026-05-04 11:20 13.86537 100.78588 3110 ft 178 kts 192°
2026-05-04 11:20 13.85413 100.78291 2894 ft 156 kts 192°
2026-05-04 11:22 13.79174 100.76643 1702 ft 132 kts 193°
2026-05-04 11:22 13.78282 100.76408 1551 ft 132 kts 194°
2026-05-04 11:23 13.77412 100.76177 1362 ft 129 kts 194°
2026-05-04 11:23 13.76528 100.75945 1221 ft 134 kts 194°
2026-05-04 11:24 13.71124 100.74519 210 ft 137 kts 193°
2026-05-04 11:25 13.70195 100.74274 43 ft 138 kts 194°
2026-05-04 11:25 13.69331 100.74048 16 ft 111 kts 194°
2026-05-04 11:25 13.68753 100.73895 19 ft 69 kts 194°
2026-05-04 11:26 13.68235 100.73871 18 ft 14 kts 155°